Date String (YYYY-MM-DD hh:mm:ss) UTC,Instrument flags,Ambient pressure (hPa),Sample flow (lpm),Bypass flow (lpm),Sample temperature (°C),Ambient temperature (°C),ASC tube jacket temperature (°C),LED temperature (°C),Box temperature (°C),Sample RH (%),Span deviation,Mass concentration (μg/m³),Mass concentration (μg/m³),Mass concentration (μg/m³)
DateTimeUTC,F1_M11,P_M11,Q1_M11,Q2_M11,T1_M11,T2_M11,T3_M11,T4_M11,T5_M11,U1_M11,ZSPAN_M11,X0_M11,X2_M11,X1_M11
2022-05-06 04:00:00,,0822.8,5.00,0.00,29.9,28.9,00.0,38.8,31.6,12.3,0000.0,0009.08,0003.67,0002.38
2022-05-06 04:01:00,,0822.8,5.00,0.00,29.9,29.0,00.0,38.8,31.6,12.3,0000.0,0009.01,0003.63,0002.39
2022-05-06 04:02:00,,0822.8,5.01,0.00,29.9,29.0,00.0,38.8,31.6,11.6,0000.0,0008.82,0003.63,0002.40
2022-05-06 04:03:00,,0822.8,5.00,0.00,29.9,29.0,00.0,38.8,31.6,11.7,0000.0,0008.52,0003.64,0002.43
2022-05-06 04:04:00,,0822.8,5.02,0.00,29.9,29.0,00.0,38.8,31.6,11.5,0000.0,0008.68,0003.68,0002.44
2022-05-06 04:05:00,,0822.9,5.00,0.00,29.9,29.0,00.0,38.8,31.7,11.4,0000.0,0007.92,0003.66,0002.44
2022-05-06 04:06:00,,0822.9,4.99,0.00,29.9,29.0,00.0,38.8,31.7,11.9,0000.0,0007.92,0003.65,0002.42
2022-05-06 04:07:00,,0822.9,5.01,0.00,29.9,29.0,00.0,38.8,31.7,11.8,0000.0,0007.87,0003.69,0002.41
2022-05-06 04:08:00,,0822.9,4.99,0.00,29.9,29.0,00.0,38.8,31.7,11.7,0000.0,0007.85,0003.70,0002.40
2022-05-06 04:09:00,,0823.0,5.01,0.00,29.9,28.9,00.0,38.8,31.7,12.1,0000.0,0007.92,0003.70,0002.38
2022-05-06 04:10:00,,0823.0,5.00,0.00,29.9,28.9,00.0,38.8,31.7,12.5,0000.0,0008.10,0003.76,0002.40
2022-05-06 04:11:00,,0823.0,4.99,0.00,29.9,28.9,00.0,38.8,31.7,12.6,0000.0,0008.06,0003.75,0002.40
2022-05-06 04:12:00,,0822.9,5.00,0.00,29.9,28.9,00.0,38.8,31.6,12.8,0000.0,0008.11,0003.78,0002.39
2022-05-06 04:13:00,,0823.0,5.00,0.00,29.9,28.9,00.0,38.8,31.6,12.8,0000.0,0008.15,0003.79,0002.39
2022-05-06 04:14:00,,0823.0,5.01,0.00,29.9,28.9,00.0,38.8,31.6,12.5,0000.0,0008.22,0003.80,0002.38
2022-05-06 04:15:00,,0823.0,4.99,0.00,29.8,28.9,00.0,38.8,31.6,12.3,0000.0,0008.11,0003.79,0002.37
2022-05-06 04:16:00,,0822.9,5.01,0.00,29.8,28.9,00.0,38.8,31.6,12.3,0000.0,0008.11,0003.79,0002.38
2022-05-06 04:17:00,,0823.0,5.01,0.00,29.8,29.0,00.0,38.8,31.6,12.3,0000.0,0008.14,0003.82,0002.40
2022-05-06 04:18:00,,0823.0,5.00,0.00,29.9,29.0,00.0,38.8,31.6,12.2,0000.0,0008.25,0003.81,0002.43
2022-05-06 04:19:00,,0823.0,4.99,0.00,29.9,29.0,00.0,38.8,31.7,12.1,0000.0,0008.26,0003.81,0002.46
2022-05-06 04:20:00,,0823.0,4.99,0.00,29.9,29.0,00.0,38.8,31.7,12.0,0000.0,0008.69,0003.83,0002.48
2022-05-06 04:21:00,,0823.0,5.01,0.00,29.9,29.1,00.0,38.8,31.7,12.1,0000.0,0008.54,0003.78,0002.47
2022-05-06 04:22:00,,0823.1,5.01,0.00,29.9,29.1,00.0,38.8,31.7,12.0,0000.0,0008.81,0003.78,0002.46
2022-05-06 04:23:00,,0823.0,4.99,0.00,29.9,29.1,00.0,38.8,31.7,12.0,0000.0,0009.00,0003.73,0002.43
2022-05-06 04:24:00,,0823.1,4.99,0.00,30.0,29.1,00.0,38.9,31.7,12.4,0000.0,0009.08,0003.71,0002.41
2022-05-06 04:25:00,,0823.0,5.01,0.00,30.0,29.1,00.0,38.9,31.7,12.4,0000.0,0008.99,0003.68,0002.40
2022-05-06 04:26:00,,0823.0,4.99,0.00,30.0,29.2,00.0,38.9,31.8,12.2,0000.0,0008.92,0003.65,0002.41
2022-05-06 04:27:00,,0823.0,4.99,0.00,30.0,29.2,00.0,38.9,31.8,12.0,0000.0,0008.93,0003.65,0002.41
2022-05-06 04:28:00,,0823.0,5.01,0.00,30.0,29.2,00.0,38.9,31.8,11.9,0000.0,0008.81,0003.65,0002.41
2022-05-06 04:29:00,,0823.0,4.99,0.00,30.0,29.2,00.0,38.9,31.7,11.8,0000.0,0008.61,0003.61,0002.39
2022-05-06 04:30:00,,0823.0,5.00,0.00,30.0,29.3,00.0,38.9,31.8,11.9,0000.0,0008.62,0003.59,0002.37
2022-05-06 04:31:00,,0823.1,5.00,0.00,30.1,29.3,00.0,38.9,31.8,12.3,0000.0,0008.35,0003.59,0002.35
2022-05-06 04:32:00,,0823.1,5.01,0.00,30.1,29.3,00.0,39.0,31.8,11.9,0000.0,0008.15,0003.59,0002.36
2022-05-06 04:33:00,,0823.1,5.01,0.00,30.1,29.3,00.0,39.0,31.9,11.9,0000.0,0008.20,0003.61,0002.37
2022-05-06 04:34:00,,0823.1,5.00,0.00,30.1,29.3,00.0,39.0,31.9,13.2,0000.0,0008.05,0003.66,0002.41
2022-05-06 04:35:00,,0823.1,5.00,0.00,30.1,29.3,00.0,39.0,31.9,13.2,0000.0,0007.95,0003.68,0002.46
2022-05-06 04:36:00,,0823.1,5.00,0.00,30.1,29.3,00.0,39.0,31.9,13.4,0000.0,0008.15,0003.69,0002.50
2022-05-06 04:37:00,,0823.1,4.99,0.00,30.1,29.3,00.0,39.0,31.9,13.1,0000.0,0008.55,0003.71,0002.53
2022-05-06 04:38:00,,0823.1,5.01,0.00,30.2,29.3,00.0,39.0,31.9,12.6,0000.0,0009.27,0003.78,0002.59
2022-05-06 04:39:00,,0823.0,5.01,0.00,30.2,29.3,00.0,39.0,31.9,12.9,0000.0,0009.42,0003.84,0002.62
2022-05-06 04:40:00,,0822.8,4.99,0.00,30.2,29.3,00.0,39.0,31.9,13.1,0000.0,0009.60,0003.91,0002.69
2022-05-06 04:41:00,,0822.9,4.99,0.00,30.2,29.3,00.0,39.1,31.9,12.6,0000.0,0009.86,0004.05,0002.79
2022-05-06 04:42:00,,0823.0,5.00,0.00,30.2,29.4,00.0,39.1,31.9,12.5,0000.0,0010.20,0004.16,0002.89
2022-05-06 04:43:00,,0822.9,5.00,0.00,30.2,29.3,00.0,39.1,32.0,12.4,0000.0,0010.69,0004.25,0002.99
2022-05-06 04:44:00,,0822.9,4.99,0.00,30.2,29.3,00.0,39.1,32.0,12.5,0000.0,0010.76,0004.33,0003.08
2022-05-06 04:45:00,,0823.0,4.99,0.00,30.2,29.4,00.0,39.1,32.0,12.4,0000.0,0010.64,0004.39,0003.14
2022-05-06 04:46:00,,0822.9,5.01,0.00,30.2,29.3,00.0,39.1,32.0,12.5,0000.0,0010.90,0004.50,0003.19
2022-05-06 04:47:00,,0823.0,4.99,0.00,30.2,29.3,00.0,39.1,32.0,12.6,0000.0,0011.09,0004.61,0003.22
2022-05-06 04:48:00,,0822.9,5.01,0.00,30.2,29.4,00.0,39.1,32.0,12.7,0000.0,0011.39,0004.71,0003.27
2022-05-06 04:49:00,,0822.8,5.00,0.00,30.2,29.3,00.0,39.1,32.0,12.7,0000.0,0011.39,0004.75,0003.32
2022-05-06 04:50:00,,0822.8,5.00,0.00,30.2,29.3,00.0,39.1,32.0,12.8,0000.0,0011.40,0004.80,0003.36
2022-05-06 04:51:00,,0822.8,5.00,0.00,30.2,29.3,00.0,39.1,32.0,12.8,0000.0,0012.07,0004.88,0003.41
2022-05-06 04:52:00,,0822.8,4.99,0.00,30.2,29.3,00.0,39.1,32.0,12.8,0000.0,0012.24,0004.86,0003.43
2022-05-06 04:53:00,,0822.8,5.01,0.00,30.2,29.3,00.0,39.2,32.0,13.0,0000.0,0012.43,0004.86,0003.44
2022-05-06 04:54:00,,0822.9,5.00,0.00,30.2,29.3,00.0,39.2,32.0,13.2,0000.0,0012.32,0004.92,0003.45
2022-05-06 04:55:00,,0822.8,4.98,0.00,30.2,29.3,00.0,39.2,32.0,13.9,0000.0,0012.32,0004.90,0003.44
2022-05-06 04:56:00,,0822.8,5.00,0.00,30.2,29.3,00.0,39.2,32.0,13.7,0000.0,0012.48,0004.91,0003.43
2022-05-06 04:57:00,,0822.8,5.00,0.00,30.2,29.3,00.0,39.2,32.0,13.6,0000.0,0012.66,0004.88,0003.41
2022-05-06 04:58:00,,0822.8,5.00,0.00,30.2,29.3,00.0,39.2,32.0,13.4,0000.0,0013.16,0004.88,0003.40
2022-05-06 04:59:00,,0822.7,5.00,0.00,30.2,29.3,00.0,39.2,32.0,13.3,0000.0,0013.40,0004.91,0003.40
